Theta_e
298 300 299 298 298 299 298 299 295 298 298 302 304 306 307 310 310 309 310 313 316 319 322 324 324 325 326 326 325 325 324 323 322 321 321 318 317 315 312 309 306 303 299 298
296 299 298 296 298 299 299 300 300 300 299 306 307 308 307 308 308 309 311 314 317 320 321 321 322 322 321 320 319 320 318 317 317 317 315 314 313 310 308 307 304 301 299 300
292 297 297 293 297 298 299 301 300 296 301 305 305 306 307 308 309 310 311 313 314 314 314 315 316 316 315 315 316 315 313 313 312 311 309 308 307 304 303 301 300 298 298 297
294 295 287 297 304 303 301 302 303 302 303 305 307 308 309 310 311 310 310 311 311 311 311 312 313 313 313 312 311 310 309 309 309 308 306 305 304 302 300 299 298 299 299 299
293 291 295 297 301 301 300 299 305 304 305 307 308 308 307 310 312 310 309 310 310 311 310 310 310 310 309 308 308 307 306 306 306 306 304 303 302 302 302 301 301 300 300 299
295 290 287 298 304 307 306 296 306 306 306 306 307 301 305 309 310 309 309 308 308 308 309 308 308 309 307 306 305 304 304 304 305 305 304 302 300 300 300 300 299 300 298 297
295 293 296 303 306 308 295 298 307 308 308 307 305 307 310 309 307 308 307 307 307 307 307 307 308 307 305 304 303 304 304 304 303 302 301 300 300 299 298 298 298 297 296 297
296 293 290 306 305 300 305 310 310 310 309 308 309 309 307 306 305 305 305 305 306 305 305 306 306 305 303 302 303 302 302 300 300 299 298 298 298 297 296 295 295 295 294 294
299 299 308 309 308 311 311 311 312 311 310 310 310 307 306 305 304 304 304 305 305 304 303 304 305 304 301 301 301 300 298 296 295 295 295 295 295 294 294 293 292 291 289 289
301 305 306 309 311 312 313 312 313 312 311 311 309 307 305 304 304 304 304 304 304 302 301 300 301 301 300 299 298 297 295 294 293 293 292 292 292 290 289 289 287 286 286 285
301 304 307 309 310 312 311 311 310 310 311 311 309 306 305 304 303 304 303 303 302 300 298 297 298 297 297 296 296 293 292 291 290 290 289 288 287 286 286 284 282 283 283 283
300 305 308 308 311 313 311 310 309 309 309 310 309 306 306 304 304 303 302 301 299 298 297 296 295 294 294 294 293 291 289 288 288 288 287 287 286 285 280 281 280 279 278 278
304 309 309 311 310 310 311 311 311 309 310 308 308 307 305 303 303 299 300 299 297 296 295 293 292 291 291 291 291 289 287 286 284 285 285 284 285 284 284 280 280 279 278 276
309 307 304 306 306 308 309 310 307 309 310 309 307 306 304 302 300 299 297 297 296 293 291 290 288 286 287 287 286 285 284 281 285 284 284 284 283 282 282 281 280 281 279 277
307 306 305 305 305 304 306 306 305 306 306 305 305 303 302 299 297 297 297 294 292 290 288 285 283 282 284 285 284 283 283 283 283 283 281 280 281 281 280 280 279 278 279 279
304 303 302 302 302 301 301 302 302 302 303 302 301 300 299 298 296 292 291 290 286 283 281 280 280 282 283 283 282 281 278 277 279 281 280 279 279 279 278 277 277 277 277 277
301 301 300 300 300 299 299 300 300 299 300 299 298 297 295 290 286 282 280 281 280 279 279 279 279 280 280 281 280 280 280 278 275 279 278 278 277 276 276 276 275 275 275 275
302 302 302 302 300 298 297 298 298 297 295 293 287 286 283 280 279 278 277 277 277 276 277 278 277 277 277 278 278 278 278 277 277 276 276 276 274 275 275 274 274 274 274 275
299 299 299 298 298 297 294 290 287 285 285 284 283 280 279 278 277 277 277 276 275 275 275 276 276 276 275 275 276 276 275 275 275 274 274 272 274 274 273 273 273 272 272 272
286 287 286 285 286 285 283 284 284 282 282 281 281 279 277 277 278 278 279 277 278 276 276 275 275 274 273 272 273 274 274 274 273 273 273 271 272 271 272 271 271 271 272 271
283 283 282 282 282 283 284 284 283 282 282 281 280 279 278 279 278 278 276 273 275 275 275 275 275 274 274 274 273 275 274 273 272 272 272 271 271 271 271 271 271 270 270 270
281 281 280 281 280 280 281 282 281 280 279 278 278 277 277 276 276 276 278 275 275 276 276 275 274 271 272 271 274 274 273 272 271 271 271 271 270 269 269 269 269 269 268 268
281 281 280 279 279 278 279 279 279 279 278 278 278 278 278 278 278 276 274 276 276 275 275 274 270 269 268 273 273 272 272 271 270 270 270 270 269 268 268 268 267 267 267 267
281 280 280 280 280 279 277 278 278 277 277 277 278 278 278 276 275 276 276 274 274 275 274 272 271 268 268 272 272 271 270 270 270 270 270 268 268 268 267 267 266 267 266 265
280 280 280 280 279 278 279 279 278 278 277 277 277 277 278 278 278 277 276 274 272 274 274 269 268 267 271 271 271 270 270 269 269 268 267 267 267 267 267 266 266 265 264 263
278 277 278 278 278 279 279 278 277 278 278 277 277 277 277 277 276 276 274 273 273 272 272 272 271 270 270 270 270 269 269 269 268 268 267 266 266 266 266 265 265 264 264 263
277 277 277 276 276 276 276 276 276 274 275 277 276 276 276 276 274 274 273 273 273 272 272 272 271 270 269 268 268 268 268 268 267 267 266 265 265 265 265 264 264 263 262 261
Wind_Speed
24 20 20 22 24 22 20 18 18 17 19 16 13 8 8 9 4 5 6 7 6 7 8 9 9 8 9 9 8 7 6 6 7 6 5 6 6 7 8 9 8 8 8 8
22 22 21 19 17 20 22 23 20 20 21 16 14 7 5 7 5 7 7 7 7 8 9 8 9 10 10 10 9 8 9 8 7 7 6 5 6 6 5 5 7 9 9 10
17 20 19 20 17 19 19 21 16 18 20 16 17 12 10 11 8 8 9 11 11 11 10 10 11 11 11 10 10 10 10 9 9 8 8 8 7 7 7 7 7 7 7 8
10 4 15 9 16 22 22 20 19 19 18 16 12 9 6 4 10 10 12 13 13 12 12 12 12 13 12 11 11 11 11 10 10 9 9 9 9 9 8 8 8 8 9 9
9 11 13 18 13 12 15 17 17 16 16 15 7 4 4 6 10 12 13 13 12 12 12 12 12 12 13 12 12 11 11 11 10 10 11 11 10 9 8 7 6 5 4 5
7 15 19 11 16 13 15 14 13 14 12 8 6 9 10 14 15 15 14 13 13 13 13 13 12 12 13 12 12 12 12 12 11 11 11 11 10 8 7 6 6 4 4 1
13 9 9 11 13 12 14 11 5 4 5 8 10 13 10 18 16 17 15 15 14 13 12 12 12 12 13 13 13 12 12 11 11 11 10 9 8 6 5 5 5 4 4 2
11 12 15 7 10 14 14 12 6 7 8 9 6 10 18 19 19 18 18 16 15 13 13 12 12 12 14 13 12 12 11 11 10 9 7 6 7 5 4 4 3 1 2 3
9 6 8 13 16 16 15 10 7 10 9 9 16 17 19 19 20 18 18 15 14 13 14 12 12 12 13 13 12 11 11 10 9 8 6 5 5 4 3 4 3 3 2 3
9 9 13 9 15 13 11 12 10 8 8 12 18 19 20 19 18 17 17 16 14 15 14 13 11 11 12 12 11 11 10 9 7 6 5 4 4 4 4 4 4 3 3 4
17 19 17 11 11 16 11 8 9 7 10 14 17 20 20 20 19 17 16 15 15 14 13 14 12 12 11 11 11 10 9 8 7 5 4 5 6 6 4 7 6 5 5 4
9 12 10 13 10 14 14 14 11 12 12 15 18 20 20 18 17 17 17 16 15 15 15 14 13 12 10 10 9 9 9 6 4 4 3 3 2 7 9 10 8 6 5 5
12 4 5 12 9 15 11 11 12 12 13 16 18 18 19 16 17 16 17 16 15 15 14 13 13 11 9 8 8 7 7 7 4 3 3 3 2 1 0 5 6 8 6 2
13 2 7 9 7 5 7 6 6 10 11 13 15 15 15 15 15 16 15 14 14 14 13 13 12 11 8 9 9 8 7 6 4 3 3 2 3 2 2 3 4 2 9 0
5 6 8 4 3 3 3 4 7 9 11 13 13 14 14 15 15 14 14 14 14 14 14 12 10 10 9 8 8 6 4 4 4 4 4 3 2 1 2 3 4 4 5 3
2 4 5 6 4 4 5 8 9 10 10 12 14 15 15 16 15 15 14 14 14 13 13 11 10 9 7 7 7 7 6 6 5 2 2 1 1 2 3 3 4 4 5 5
7 6 5 7 7 6 8 7 7 9 10 11 14 16 16 16 16 17 17 17 14 12 11 10 11 8 6 4 4 3 4 4 3 0 1 2 2 2 3 4 4 4 5 3
9 7 7 5 6 7 7 8 11 13 13 16 15 19 19 17 16 15 14 14 13 12 11 10 7 7 7 6 5 4 3 2 2 1 2 1 3 3 3 4 5 5 6 6
12 8 9 9 7 9 11 12 14 16 15 16 18 17 17 16 15 13 11 12 12 12 9 8 7 7 7 6 3 3 3 2 1 1 3 2 4 3 4 5 5 6 7 7
15 16 17 17 16 15 15 14 15 14 13 15 17 16 16 14 14 13 10 12 11 9 9 7 6 6 5 5 5 3 3 2 3 2 2 4 4 5 5 5 6 6 7 7
14 15 15 15 13 15 14 12 14 15 14 13 15 14 14 15 13 11 11 10 10 9 8 6 4 3 4 2 1 2 2 3 3 4 4 4 5 6 6 6 7 7 7 7
15 16 16 15 16 18 16 16 17 15 16 17 15 13 15 14 13 13 12 11 7 7 5 4 5 6 4 4 2 3 3 4 4 4 5 5 5 6 6 7 7 7 8 8
16 16 17 17 17 17 18 17 16 16 15 14 14 14 12 9 6 7 8 8 6 5 4 6 5 3 2 4 3 4 4 5 5 5 5 6 5 6 7 7 7 8 8 8
17 17 17 15 15 16 18 16 16 15 14 14 12 10 8 7 8 8 8 9 7 4 6 4 4 3 4 3 4 4 5 5 6 6 6 6 6 6 7 7 8 8 8 9
16 15 14 14 15 11 13 12 12 12 12 12 11 9 10 8 6 6 6 6 5 2 5 6 3 3 4 4 5 5 5 6 6 6 7 7 7 7 7 7 8 8 9 9
16 12 12 16 12 10 9 9 9 8 7 7 7 7 6 6 5 5 5 5 4 4 5 3 4 4 5 5 5 6 6 6 7 6 7 7 8 8 8 8 8 8 9 9
13 13 11 11 10 11 10 10 9 9 9 7 7 6 6 5 4 4 4 4 4 4 4 4 4 4 5 5 7 7 7 7 7 7 7 8 8 8 8 8 8 8 9 9
Wind_Direction
234 237 233 222 216 224 234 231 234 241 245 258 257 259 293 13 119 199 202 200 186 175 153 148 131 134 120 116 119 127 130 144 123 150 176 167 162 170 180 172 172 172 172 170
227 229 237 242 238 231 235 231 240 247 254 266 282 286 246 241 230 207 179 167 161 142 133 128 135 116 118 116 118 120 115 107 111 114 113 107 91 88 106 122 126 153 167 172
234 224 237 242 237 256 246 247 242 245 257 263 255 238 241 252 206 190 164 149 142 129 121 116 111 114 111 112 109 105 105 102 100 99 99 101 105 110 115 125 138 133 139 141
213 223 223 236 235 234 241 250 246 247 248 263 276 273 326 214 186 167 153 140 134 128 122 114 108 106 108 104 102 101 99 101 102 104 105 104 101 100 114 131 145 152 163 178
217 222 246 235 224 229 245 244 242 254 252 241 253 126 187 201 160 158 152 146 135 126 121 117 115 114 113 109 108 106 104 103 104 109 110 111 109 109 120 125 133 129 145 161
193 229 230 229 245 212 249 250 249 245 242 247 169 216 233 172 152 143 145 142 138 131 126 121 119 118 114 110 108 105 107 107 109 108 108 96 87 91 75 84 80 83 77 53
217 234 245 219 238 185 214 250 244 228 263 253 231 229 140 148 153 157 153 145 138 136 129 125 125 122 117 116 113 114 109 100 89 88 98 105 108 110 120 133 157 155 196 252
232 228 234 241 150 213 235 245 219 238 250 260 204 137 150 156 159 154 153 147 144 137 135 132 131 130 126 122 118 116 118 114 112 114 126 136 130 132 121 89 84 96 30 336
212 235 223 191 216 219 251 278 203 237 230 207 154 164 162 161 160 158 157 153 149 141 136 133 134 139 132 128 125 124 120 116 112 105 97 86 84 81 91 54 31 45 343 339
275 260 251 227 234 260 241 242 252 223 211 193 176 170 169 165 165 164 160 156 150 146 144 139 137 128 130 132 130 128 122 115 105 104 102 87 95 57 61 40 18 6 354 347
251 255 269 277 260 249 225 246 234 228 202 181 177 178 173 169 167 166 161 153 154 152 145 141 137 133 132 134 134 129 124 122 111 111 100 105 78 37 56 62 32 356 22 353
248 250 285 264 296 246 230 216 227 220 190 181 181 180 175 170 169 165 158 158 156 151 146 141 138 134 129 131 133 131 126 112 97 112 89 84 89 135 81 103 110 95 73 27
246 298 281 290 317 302 236 229 208 219 194 187 179 178 178 170 167 156 157 157 153 148 140 139 132 124 115 106 113 119 119 120 114 117 101 86 81 43 295 157 170 164 153 149
249 281 268 246 277 279 271 227 200 209 188 178 175 168 169 163 146 155 153 148 141 135 134 125 121 105 105 102 98 91 92 28 108 103 94 97 59 20 351 339 314 283 183 91
268 240 292 311 260 230 234 148 196 190 168 162 155 159 155 152 154 146 137 128 129 129 115 110 104 100 89 86 93 97 85 75 72 76 56 41 37 346 321 306 303 306 309 275
352 284 269 261 242 199 186 170 177 162 161 148 152 149 144 147 128 115 123 122 129 113 92 87 86 78 85 100 112 105 78 50 28 77 109 19 350 323 317 308 305 310 309 324
269 258 263 246 224 194 206 147 149 143 144 145 135 132 125 107 95 91 93 92 91 94 91 80 80 78 59 53 76 91 99 102 17 153 20 359 334 311 309 302 306 308 310 25
316 321 313 285 193 169 140 129 124 130 129 108 96 103 103 106 112 110 104 102 96 85 80 85 91 84 78 50 54 67 75 70 56 34 308 314 343 304 309 306 300 308 314 317
13 26 61 73 94 95 83 77 76 89 101 107 107 104 106 107 108 110 112 107 103 104 96 97 104 95 80 55 43 58 56 37 349 316 323 309 271 312 306 304 315 317 308 309
53 51 61 65 66 81 87 83 90 87 90 98 102 107 103 105 110 114 106 86 84 100 112 107 90 85 85 64 9 54 24 357 324 321 342 314 307 320 301 298 302 304 309 308
64 65 65 70 71 73 75 86 92 93 96 95 95 95 101 92 89 100 99 94 93 94 98 93 83 93 72 62 308 24 354 326 321 317 313 309 304 297 313 311 314 310 308 313
62 64 65 66 65 66 65 70 71 77 81 84 88 90 86 86 81 70 73 97 111 125 114 98 78 39 63 318 357 323 324 315 311 307 298 302 306 310 312 315 312 309 316 311
68 68 69 67 69 68 65 64 68 72 74 75 77 76 76 76 84 99 97 105 107 98 101 77 96 91 14 284 334 318 316 309 293 297 301 302 305 311 309 310 313 311 306 312
69 68 70 71 74 71 71 69 72 71 71 70 64 66 83 89 81 75 84 91 103 83 66 84 100 58 323 325 320 318 307 308 308 298 299 306 295 298 303 307 303 305 307 303
60 65 66 67 70 71 77 78 79 76 77 77 74 69 63 43 79 88 91 96 90 7 101 108 87 353 301 332 330 322 311 310 323 330 314 306 306 305 302 305 303 307 313 301
64 63 61 57 58 63 66 68 64 58 71 78 70 66 66 67 77 81 73 59 58 29 26 0 19 346 325 328 334 316 310 310 308 316 321 310 306 300 301 302 304 304 303 307
57 56 64 61 54 52 50 47 56 53 35 30 67 54 55 54 60 56 19 36 21 13 356 0 340 356 338 340 318 315 317 315 322 327 318 307 302 303 305 307 310 311 308 304